Measurement date,Total daily rainfall,Maximum daily air temperature,Minimum daily air temperature
Date ,Rainfall,Air temperature,Air temperature
Units: Year month day,Units: millimetre,Units: degree Celsius,Units: degree Celsius
2010-01-01,0.0,0.7,-1.6
2010-01-02,1.8,2.8,-1.4
2010-01-03,0.2,1.2,-4.5
2010-01-04,0.2,0.8,-4.3
2010-01-05,0.0,1.0,-3.2
2010-01-06,0.6,0.1,-4.7
2010-01-07,0.8,0.2,-3.9
2010-01-08,0.8,-0.5,-5.3
2010-01-09,0.2,1.1,-4.4
2010-01-10,0.6,1.0,0.2
2010-01-11,0.0,0.5,0.1
2010-01-12,0.0,1.2,0.2
2010-01-13,0.6,0.5,-0.6
2010-01-14,9.0,1.6,0.0
2010-01-15,2.2,5.4,0.4
2010-01-16,4.6,6.7,2.7
2010-01-17,0.0,7.5,2.8
2010-01-18,0.0,8.4,5.0
2010-01-19,0.0,7.2,2.7
2010-01-20,0.0,3.6,1.6
2010-01-21,1.6,5.1,1.7
2010-01-22,9.6,7.4,5.2
2010-01-23,0.0,5.2,2.3
2010-01-24,2.8,5.7,2.8
2010-01-25,0.0,3.1,0.0
2010-01-26,0.0,1.5,-1.7
2010-01-27,1.2,6.6,0.2
2010-01-28,3.4,6.5,3.2
2010-01-29,0.0,4.0,-2.1
2010-01-30,0.0,2.7,-2.9
2010-01-31,0.2,2.0,-2.1
2010-02-01,0.2,4.3,-1.2
2010-02-02,1.2,7.8,-0.5
2010-02-03,2.0,6.7,-0.3
2010-02-04,4.4,8.0,4.7
2010-02-05,0.0,9.7,0.6
2010-02-06,0.2,3.9,1.2
2010-02-07,0.8,4.3,1.4
2010-02-08,0.4,1.2,-0.2
2010-02-09,0.2,4.8,0.2
2010-02-10,0.0,2.1,-1.5
2010-02-11,0.4,2.1,0.0
2010-02-12,0.2,4.0,-0.1
2010-02-13,1.6,3.8,0.1
2010-02-14,0.2,4.4,-0.7
2010-02-15,1.8,3.7,-0.1
2010-02-16,3.8,5.1,1.4
2010-02-17,0.2,6.6,-2.2
2010-02-18,4.6,2.3,-1.2
2010-02-19,1.4,3.8,-2.1
2010-02-20,0.2,4.2,-1.0
2010-02-21,4.4,5.8,0.0
2010-02-22,4.4,2.2,0.0
2010-02-23,2.8,4.8,0.1
2010-02-24,2.2,9.5,5.2
2010-02-25,4.6,9.2,4.7
2010-02-26,2.8,6.3,1.2
2010-02-27,15.2,9.7,4.3
2010-02-28,4.6,5.3,0.6
2010-03-01,0.0,7.4,0.5
2010-03-02,0.0,7.4,-1.5
2010-03-03,0.0,5.7,-1.2
2010-03-04,0.0,5.9,-2.3
2010-03-05,0.2,7.7,-0.2
2010-03-06,0.0,5.6,-5.0
2010-03-07,0.0,4.5,-5.1
2010-03-08,0.0,4.6,-2.3
2010-03-09,0.2,6.8,2.4
2010-03-10,0.0,4.4,0.0
2010-03-11,0.6,5.1,0.9
2010-03-12,1.2,7.7,3.1
2010-03-13,0.0,8.8,3.2
2010-03-14,1.6,11.0,2.9
2010-03-15,0.0,11.5,3.7
2010-03-16,0.0,12.1,4.4
2010-03-17,0.0,13.0,5.9
2010-03-18,0.0,16.5,8.5
2010-03-19,4.4,12.7,10.2
2010-03-20,2.0,13.6,3.0
2010-03-21,0.0,12.3,5.0
2010-03-22,0.4,12.1,2.1
2010-03-23,0.0,12.5,6.4
2010-03-24,3.8,16.7,9.4
2010-03-25,2.2,14.8,6.8
2010-03-26,0.2,12.4,7.3
2010-03-27,0.0,12.4,4.8
2010-03-28,1.2,12.2,5.9
2010-03-29,2.4,12.0,7.3
2010-03-30,6.4,11.5,3.1
2010-03-31,0.2,5.3,1.3
2010-04-01,3.2,8.1,3.9
2010-04-02,2.0,9.3,3.8
2010-04-03,0.0,10.3,3.2
2010-04-04,0.0,10.5,3.3
2010-04-05,0.0,12.1,5.5
2010-04-06,0.0,16.6,8.3
2010-04-07,0.6,9.1,5.6
2010-04-08,0.0,16.1,0.8
2010-04-09,0.0,16.7,3.2
2010-04-10,0.0,17.7,2.4
2010-04-11,0.0,14.6,3.6
2010-04-12,0.0,14.5,3.1
2010-04-13,0.0,11.8,5.7
2010-04-14,0.0,12.3,4.1
2010-04-15,0.0,10.5,2.7
2010-04-16,0.0,11.7,2.6
2010-04-17,0.0,16.0,4.6
2010-04-18,0.0,16.3,6.7
2010-04-19,0.4,12.5,1.4
2010-04-20,0.0,12.0,0.5
2010-04-21,0.0,10.1,1.1
2010-04-22,0.0,12.7,1.3
2010-04-23,0.0,15.5,4.0
2010-04-24,0.0,18.5,8.5
2010-04-25,1.8,17.3,7.7
2010-04-26,0.0,16.9,7.7
2010-04-27,0.0,18.1,8.4
2010-04-28,0.0,20.1,11.4
2010-04-29,3.6,16.2,7.1
2010-04-30,3.4,14.5,8.5
2010-05-01,12.0,15.1,6.5
2010-05-02,2.2,8.8,3.8
2010-05-03,0.2,9.0,2.4
2010-05-04,0.0,10.9,4.5
2010-05-05,0.0,13.9,7.3
2010-05-06,0.0,13.2,3.9
2010-05-07,1.0,11.3,5.9
2010-05-08,3.4,7.4,5.5
2010-05-09,0.0,12.0,2.4
2010-05-10,0.0,9.4,1.1
2010-05-11,0.0,9.0,0.4
2010-05-12,0.0,9.9,0.7
2010-05-13,0.0,12.3,3.5
2010-05-14,0.0,12.6,6.8
2010-05-15,0.0,14.8,4.0
2010-05-16,0.0,16.5,4.0
2010-05-17,0.0,14.9,5.2
2010-05-18,0.0,16.5,5.6
2010-05-19,0.0,19.0,12.0
2010-05-20,0.0,22.2,11.5
2010-05-21,0.0,22.4,7.8
2010-05-22,0.0,22.7,10.3
2010-05-23,0.0,25.4,13.5
2010-05-24,0.0,23.2,9.5
2010-05-25,0.0,17.2,5.7
2010-05-26,4.0,14.1,7.3
2010-05-27,0.0,14.3,5.6
2010-05-28,0.0,16.5,8.0
2010-05-29,5.0,14.1,11.3
2010-05-30,0.0,15.4,9.7
2010-05-31,0.0,15.5,8.0
2010-06-01,2.6,13.2,5.4
2010-06-02,0.0,19.3,7.2
2010-06-03,0.0,21.2,7.1
2010-06-04,0.0,24.0,11.1
2010-06-05,0.2,25.2,14.4
2010-06-06,3.0,18.8,10.4
2010-06-07,4.6,18.1,11.3
2010-06-08,4.6,17.6,11.1
2010-06-09,2.0,18.2,13.0
2010-06-10,0.6,15.5,11.3
2010-06-11,0.0,19.1,8.1
2010-06-12,0.0,16.4,10.1
2010-06-13,3.6,19.5,10.3
2010-06-14,0.0,15.6,5.9
2010-06-15,0.0,14.9,5.8
2010-06-16,0.0,17.0,5.1
2010-06-17,0.0,19.0,9.3
2010-06-18,0.4,14.9,7.8
2010-06-19,0.6,11.6,5.9
2010-06-20,0.0,16.3,9.9
2010-06-21,0.0,22.6,11.4
2010-06-22,0.0,24.6,11.4
2010-06-23,0.0,24.2,11.6
2010-06-24,0.0,22.9,11.9
2010-06-25,0.0,22.7,14.2
2010-06-26,0.0,24.3,11.9
2010-06-27,0.0,27.4,13.5
2010-06-28,2.4,25.7,13.9
2010-06-29,0.0,25.4,14.6
2010-06-30,0.0,23.7,13.7
2010-07-01,0.0,24.6,13.7
2010-07-02,0.0,23.4,14.1
2010-07-03,0.0,23.2,10.6
2010-07-04,0.0,23.1,11.6
2010-07-05,0.0,21.2,10.5
2010-07-06,0.0,22.1,14.1
2010-07-07,1.0,22.2,16.3
2010-07-08,0.0,24.0,14.6
2010-07-09,0.0,29.0,15.1
2010-07-10,0.0,28.1,16.4
2010-07-11,0.0,24.7,13.7
2010-07-12,0.0,21.4,12.8
2010-07-13,0.0,18.4,14.5
2010-07-14,2.8,21.7,14.3
2010-07-15,4.4,19.9,13.1
2010-07-16,0.0,21.1,12.4
2010-07-17,0.6,19.1,9.5
2010-07-18,0.0,23.4,14.7
2010-07-19,0.0,27.9,16.9
2010-07-20,0.0,27.9,17.0
2010-07-21,0.0,24.2,11.5
2010-07-22,1.8,20.7,12.5
2010-07-23,0.0,18.1,11.9
2010-07-24,0.0,22.9,15.7
2010-07-25,0.0,24.9,16.2
2010-07-26,0.2,20.8,16.0
2010-07-27,0.4,22.7,11.9
2010-07-28,0.0,21.5,11.1
2010-07-29,0.0,19.2,9.6
2010-07-30,6.6,21.1,15.3
2010-07-31,0.2,22.1,13.1
2010-08-01,0,20.6,12.0
2010-08-02,0.0,18.9,10.8
2010-08-03,1.2,21.5,13.3
2010-08-04,1.4,15.8,10.9
2010-08-05,0.0,20.5,9.7
2010-08-06,4.0,21.1,14.7
2010-08-07,1.0,21.2,13.5
2010-08-08,0.0,21.4,13.4
2010-08-09,3.0,24.4,12.9
2010-08-10,1.4,17.4,9.8
2010-08-11,0.8,20.5,12.8
2010-08-12,2.8,17.8,10.9
2010-08-13,9.6,16.5,12.5
2010-08-14,1.2,19.2,12.3
2010-08-15,0.0,20.3,12.7
2010-08-16,0.0,22.1,13.3
2010-08-17,2.6,21.4,10.6
2010-08-18,1.8,19.3,11.2
2010-08-19,3.4,20.1,14.9
2010-08-20,0.0,24.1,18.9
2010-08-21,18.4,23.7,15.4
2010-08-22,20.0,22.8,15.3
2010-08-23,4.8,19.0,10.4
2010-08-24,0.0,19.1,10.9
2010-08-25,37.2,17.0,12.1
2010-08-26,18.8,15.7,11.0
2010-08-27,0.0,17.3,9.5
2010-08-28,0.0,17.8,11.0
2010-08-29,3.0,16.6,8.8
2010-08-30,0.0,16.7,7.5
2010-08-31,0.0,19.0,8.6
2010-09-01,0.0,20.7,9.8
2010-09-02,0.0,19.8,7.9
2010-09-03,0.0,19.6,8.6
2010-09-04,0.2,18.7,10.4
2010-09-05,0.0,19.2,13.3
2010-09-06,7.8,18.9,12.6
2010-09-07,2.2,18.8,12.2
2010-09-08,0.0,17.9,11.6
2010-09-09,1.0,19.5,13.1
2010-09-10,0.6,20.7,15.1
2010-09-11,0.0,21.4,10.4
2010-09-12,0.0,18.9,9.8
2010-09-13,0.8,17.9,13.8
2010-09-14,5.6,19.8,8.9
2010-09-15,3.6,15.8,9.6
2010-09-16,0.2,16.0,7.2
2010-09-17,0.0,14.1,5.2
2010-09-18,1.4,15.5,10.2
2010-09-19,0.2,16.1,12.2
2010-09-20,0.0,20.0,10.7
2010-09-21,0.0,20.9,11.3
2010-09-22,0.2,22.9,14.3
2010-09-23,5.2,17.7,10.5
2010-09-24,3.0,12.1,5.4
2010-09-25,0.0,12.2,8.2
2010-09-26,5.0,12.5,10.2
2010-09-27,2.0,14.1,12.4
2010-09-28,1.8,16.0,12.7
2010-09-29,13.8,16.8,7.3
2010-09-30,0.6,15.7,10.2
2010-10-01,8.4,14.4,8.5
2010-10-02,8.0,15.8,11.1
2010-10-03,1.4,17.6,10.8
2010-10-04,0.6,14.7,11.2
2010-10-05,6.8,17.3,13.2
2010-10-06,0.2,16.6,8.6
2010-10-07,0.0,16.6,11.3
2010-10-08,0.0,18.8,13.8
2010-10-09,0.0,15.4,10.9
2010-10-10,0.0,19.4,9.3
2010-10-11,0.0,16.4,7.9
2010-10-12,0.0,13.8,9.0
2010-10-13,0.0,11.1,7.7
2010-10-14,0.8,10.9,8.0
2010-10-15,1.4,12.1,6.3
2010-10-16,0.8,11.4,4.6
2010-10-17,0.4,11.6,5.5
2010-10-18,0.4,13.3,6.7
2010-10-19,4.4,10.3,1.6
2010-10-20,0.0,7.1,1.0
2010-10-21,0.0,11.2,4.3
2010-10-22,4.0,12.9,7.3
2010-10-23,1.8,11.0,2.2
2010-10-24,0.0,9.0,1.1
2010-10-25,0.0,9.6,1.9
2010-10-26,5.8,13.2,7.0
2010-10-27,0.0,15.7,9.1
2010-10-28,0.0,14.6,10.9
2010-10-29,0.6,13.0,8.0
2010-10-30,0.0,13.5,8.3
2010-10-31,0.2,12.6,8.3
2010-11-01,0.0,12.7,7.7
2010-11-02,0.2,13.8,10.2
2010-11-03,0.8,15.1,10.8
2010-11-04,0.8,16.5,14.3
2010-11-05,9.4,14.9,7.2
2010-11-06,0.0,9.5,1.1
2010-11-07,0.0,8.2,2.8
2010-11-08,1.8,5.7,4.1
2010-11-09,1.0,7.3,2.2
2010-11-10,2.2,7.3,1.0
2010-11-11,1.0,13.3,8.4
2010-11-12,0.2,11.3,7.7
2010-11-13,0.2,9.0,4.8
2010-11-14,1.8,7.4,1.1
2010-11-15,0.4,7.0,1.1
2010-11-16,0.0,8.1,2.6
2010-11-17,0.6,5.8,4.2
2010-11-18,0.6,8.3,3.4
2010-11-19,0.2,9.1,1.5
2010-11-20,0.2,5.4,3.2
2010-11-21,0.0,6.3,3.6
2010-11-22,2.2,6.6,3.8
2010-11-23,0.0,5.7,0.0
2010-11-24,0.4,3.3,-1.5
2010-11-25,0.0,1.3,-2.7
2010-11-26,0.2,1.8,-3.6
2010-11-27,0.2,1.1,-6.4
2010-11-28,0.0,-0.8,-6.2
2010-11-29,0.2,0.3,-2.1
2010-11-30,1.6,0.5,-4.5
2010-12-01,0.0,-0.5,-3.9
2010-12-02,0.0,-1.1,-4.3
2010-12-03,1.8,1.6,-4.5
2010-12-04,0.6,3.3,-0.2
2010-12-05,0.2,2.8,-4.6
2010-12-06,0.0,-0.2,-7.6
2010-12-07,0.2,-1.4,-7.4
2010-12-08,0.0,0.2,-3.3
2010-12-09,0.0,3.7,-0.7
2010-12-10,0.0,6.5,4.1
2010-12-11,0.0,8.2,0.5
2010-12-12,0.2,3.6,-1.2
2010-12-13,1.8,3.6,-0.4
2010-12-14,0.0,3.3,-0.5
2010-12-15,1.2,5.1,1.2
2010-12-16,2.6,6.2,-4.7
2010-12-17,0.8,-1.4,-6.3
2010-12-18,0.0,-0.6,-6.9
2010-12-19,0.0,-1.4,-9.1
2010-12-20,0.0,-4.2,-8.7
2010-12-21,0.4,0.2,-3.9
2010-12-22,1.4,0.2,-3.1
2010-12-23,0.4,1.1,-2.1
2010-12-24,0.0,-0.3,-4.1
2010-12-25,0.0,-2.0,-5.9
2010-12-26,0.0,2.0,-5.8
2010-12-27,5.0,2.4,1.0
2010-12-28,0.2,3.8,1.1
2010-12-29,0.2,6.1,3.3
2010-12-30,0.0,4.4,3.1
2010-12-31,0.0,4.8,3.6
2011-01-01,1.2,5.2,0.2
2011-01-02,0.0,2.4,-0.1
2011-01-03,0.0,1.9,-0.1
2011-01-04,0.0,5.1,0.3
2011-01-05,0.4,5.4,2.3
2011-01-06,0.0,3.3,0.0
2011-01-07,11.4,9.2,1.9
2011-01-08,0.2,8.5,1.5
2011-01-09,0.0,5.1,0.1
2011-01-10,4.0,7.0,2.3
2011-01-11,4.2,6.0,1.7
2011-01-12,9.0,12.1,6.7
2011-01-13,5.0,12.3,10.8
2011-01-14,0.0,11.6,6.8
2011-01-15,0.0,11.2,9.5
2011-01-16,2.2,12.0,6.0
2011-01-17,10.4,6.7,1.8
2011-01-18,0.2,6.3,0.7
2011-01-19,0.2,6.4,1.2
2011-01-20,0.6,3.4,-1.5
2011-01-21,0.2,1.4,-2.6
2011-01-22,1.0,5.6,1.7
2011-01-23,0.0,6.5,4.4
2011-01-24,0.4,6.2,2.9
2011-01-25,0.4,7.9,5.0
2011-01-26,1.0,5.5,0.3
2011-01-27,0.0,1.9,-1.7
2011-01-28,0.0,1.0,-3.6
2011-01-29,0.0,1.3,-0.4
2011-01-30,0.0,3.6,-0.7
2011-01-31,0.0,2.8,-3.1
2011-02-01,0.2,6.9,1.9
2011-02-02,0.0,10.0,2.8
2011-02-03,0.0,10.6,3.7
2011-02-04,0.0,11.7,10.9
2011-02-05,0.0,12.6,10.2
2011-02-06,0.0,11.9,8.4
2011-02-07,0.0,11.8,0.9
2011-02-08,0.0,8.3,1.6
2011-02-09,0.0,10.3,5.9
2011-02-10,3.0,9.6,7.6
2011-02-11,3.8,11.4,6.7
2011-02-12,0.2,10.3,3.1
2011-02-13,0.4,7.9,3.0
2011-02-14,0.2,8.3,2.2
2011-02-15,0.2,6.4,2.0
2011-02-16,0.0,8.5,2.8
2011-02-17,0.0,6.1,2.5
2011-02-18,1.6,4.7,2.2
2011-02-19,3.4,5.0,2.8
2011-02-20,0.0,3.7,2.1
2011-02-21,4.0,4.2,2.5
2011-02-22,0.6,6.1,3.4
2011-02-23,4.0,9.8,6.0
2011-02-24,0.0,12.7,5.7
2011-02-25,6.0,13.6,8.6
2011-02-26,0.8,8.6,2.9
2011-02-27,0.4,7.3,2.7
2011-02-28,0.6,3.3,2.2
2011-03-01,0.0,3.6,1.5
2011-03-02,0.0,4.9,0.8
2011-03-03,0.0,2.8,0.4
2011-03-04,0.0,5.5,-0.7
2011-03-05,0.6,5.7,0.2
2011-03-06,0.0,5.1,-0.3
2011-03-07,0.0,8.7,-1.8
2011-03-08,0.0,9.8,1.7
2011-03-09,0.2,8.9,5.1
2011-03-10,0.0,12.3,3.1
2011-03-11,0.0,10.0,5.3
2011-03-12,0.0,13.2,7.3
2011-03-13,0.0,11.0,0.3
2011-03-14,0.0,11.3,4.4
2011-03-15,0.0,10.0,6.4
2011-03-16,0.2,7.7,2.9
2011-03-17,0.2,9.2,3.0
2011-03-18,0.0,7.5,0.1
2011-03-19,0.0,11.5,2.0
2011-03-20,0.0,12.2,4.9
2011-03-21,0.0,13.5,8.4
2011-03-22,0.0,15.2,6.8
2011-03-23,0.0,15.9,1.8
2011-03-24,0.0,15.9,3.7
2011-03-25,0.0,15.8,3.2
2011-03-26,0.0,10.1,4.4
2011-03-27,0.0,11.0,2.6
2011-03-28,0.0,12.0,2.7
2011-03-29,1.0,14.3,7.6
2011-03-30,2.4,12.0,8.6
2011-03-31,0.2,16.5,10.9
2011-04-01,0.0,15.8,10.5
2011-04-02,0.0,16.6,5.3
2011-04-03,0.6,13.4,4.0
2011-04-04,1.0,12.2,7.8
2011-04-05,0.0,14.0,10.0
2011-04-06,0.0,21.8,7.8
2011-04-07,0.0,16.3,5.1
2011-04-08,0.0,19.2,4.3
2011-04-09,0.0,17.8,2.4
2011-04-10,0.0,18.1,7.0
2011-04-11,0.0,18.3,3.7
2011-04-12,0.0,12.6,3.4
2011-04-13,0.0,10.7,6.6
2011-04-14,0.0,12.5,8.1
2011-04-15,0.0,14.7,9.0
2011-04-16,0.0,16.8,7.1
2011-04-17,0.0,17.5,4.2
2011-04-18,0.0,17.0,5.7
2011-04-19,0.0,20.9,5.2
2011-04-20,0.0,22.5,4.4
2011-04-21,0.0,23.4,7.2
2011-04-22,0.0,23.7,10.7
2011-04-23,0.0,25.5,9.4
2011-04-24,0.0,17.0,6.2
2011-04-25,0.0,17.3,8.0
2011-04-26,0.0,12.8,7.4
2011-04-27,0.0,12.7,4.2
2011-04-28,0.0,13.2,8.6
2011-04-29,0.0,18.7,7.9
2011-04-30,0.0,19.0,6.0
2011-05-01,0.0,17.3,4.4
2011-05-02,0.0,13.6,1.3
2011-05-03,0.0,13.3,0.3
2011-05-04,0.0,14.5,5.3
2011-05-05,0.0,17.2,8.8
2011-05-06,1.2,23.0,12.9
2011-05-07,2.2,21.7,14.3
2011-05-08,0.2,19.2,9.0
2011-05-09,0.0,19.7,7.5
2011-05-10,0.0,19.2,8.7
2011-05-11,0.0,15.4,6.9
2011-05-12,0.6,15.8,5.7
2011-05-13,0.0,16.0,4.2
2011-05-14,0.0,14.6,6.7
2011-05-15,0.0,13.5,10.9
2011-05-16,0.4,17.9,10.1
2011-05-17,0.0,16.5,12.4
2011-05-18,0.0,17.2,5.6
2011-05-19,0.0,17.2,8.3
2011-05-20,0.0,17.2,6.8
2011-05-21,0.8,20.3,10.1
2011-05-22,0.0,17.0,9.2
2011-05-23,0.2,18.1,6.7
2011-05-24,0.0,16.7,4.9
2011-05-25,0.0,19.5,10.5
2011-05-26,6.0,14.0,9.4
2011-05-27,0.2,14.5,8.9
2011-05-28,0.0,16.8,11.8
2011-05-29,0.0,18.1,12.5
2011-05-30,7.8,16.9,5.6
2011-05-31,1.4,15.9,6.0
2011-06-01,0.0,18.7,10.6
2011-06-02,0.0,21.7,9.4
2011-06-03,0.0,23.0,9.9
2011-06-04,0.0,20.9,10.6
2011-06-05,5.0,16.3,8.8
2011-06-06,2.4,13.8,9.0
2011-06-07,0.0,17.3,6.5
2011-06-08,0.4,17.0,8.5
2011-06-09,3.8,17.1,6.6
2011-06-10,0.4,14.8,8.0
2011-06-11,0.0,16.8,5.1
2011-06-12,7.0,15.8,10.8
2011-06-13,0.0,20.4,8.8
2011-06-14,0.0,20.8,13.1
2011-06-15,0.0,20.1,12.5
2011-06-16,0.8,17.4,8.0
2011-06-17,6.0,15.2,10.7
2011-06-18,4.0,16.9,10.4
2011-06-19,0.0,17.6,9.0
2011-06-20,1.8,20.2,14.2
2011-06-21,0.0,20.6,10.7
2011-06-22,2.6,18.5,10.8
2011-06-23,2.2,16.8,7.7
2011-06-24,4.8,17.6,10.2
2011-06-25,0.0,21.7,14.7
2011-06-26,0.0,27.9,16.8
2011-06-27,0.6,30.1,15.1
2011-06-28,7.6,16.5,8.1
2011-06-29,0.0,18.9,7.8
2011-06-30,0.0,17.3,7.6
2011-07-01,0.0,19.0,7.8
2011-07-02,0.0,20.4,10.9
2011-07-03,0.0,22.1,13.2
2011-07-04,0.0,23.3,11.2
2011-07-05,3.2,24.3,12.5
2011-07-06,1.0,19.6,13.1
2011-07-07,1.2,18.9,10.9
2011-07-08,1.8,19.0,12.1
2011-07-09,0.0,20.6,11.4
2011-07-10,7.2,21.0,11.6
2011-07-11,0.0,21.8,11.4
2011-07-12,0.0,18.0,11.6
2011-07-13,0.0,15.7,10.5
2011-07-14,0.0,20.8,11.5
2011-07-15,0.6,22.8,14.0
2011-07-16,18.0,19.5,11.9
2011-07-17,4.4,17.8,12.4
2011-07-18,4.2,17.9,10.9
2011-07-19,1.0,18.9,11.7
2011-07-20,0.0,18.5,12.2
2011-07-21,0.0,18.9,8.1
2011-07-22,3.8,18.0,8.9
2011-07-23,0.0,17.1,10.0
2011-07-24,0.0,20.7,8.1
2011-07-25,0.4,18.5,11.5
2011-07-26,0.0,16.5,13.1
2011-07-27,0.0,19.4,13.4
2011-07-28,0.0,23.1,12.0
2011-07-29,0.0,16.7,8.1
2011-07-30,0.0,19.0,11.0
2011-07-31,0.0,24.2,13.6
2011-08-01,0.0,26.3,15.9
2011-08-02,0.2,27.0,15.9
2011-08-03,3.0,27.1,14.6
2011-08-04,8.2,19.1,13.3
2011-08-05,0.0,23.3,13.5
2011-08-06,0.0,19.1,10.8
2011-08-07,0.0,19.4,9.9
2011-08-08,0.0,19.6,10.7
2011-08-09,0.0,19.8,8.6
2011-08-10,0.0,22.4,14.2
2011-08-11,3.4,21.3,13.9
2011-08-12,3.0,20.3,14.8
2011-08-13,0.0,19.4,13.2
2011-08-14,0.0,20.6,9.7
2011-08-15,0.0,21.4,13.1
2011-08-16,0.0,21.3,11.2
2011-08-17,0.8,17.7,8.0
2011-08-18,5.2,14.5,8.7
2011-08-19,0.0,20.8,12.8
2011-08-20,0.0,21.0,12.7
2011-08-21,0.0,22.7,10.7
2011-08-22,0.2,22.1,12.2
2011-08-23,0.4,15.1,12.3
2011-08-24,0.6,20.8,12.7
2011-08-25,8.2,19.1,11.4
2011-08-26,8.2,14.5,10.7
2011-08-27,3.8,16.7,10.8
2011-08-28,1.4,17.7,10.3
2011-08-29,0.4,14.8,10.9
2011-08-30,0.0,15.7,11.5
2011-08-31,0.0,16.6,9.8
2011-09-01,0.0,19.4,9.2
2011-09-02,0.0,25.1,13.9
2011-09-03,0.0,21.8,14.4
2011-09-04,8.2,19.1,9.8
2011-09-05,0.4,18.1,13.1
2011-09-06,4.2,16.9,10.9
2011-09-07,1.6,16.3,11.9
2011-09-08,0.0,18.2,13.2
2011-09-09,0.0,21.7,16.0
2011-09-10,0.0,22.3,13.7
2011-09-11,1.4,18.6,14.4
2011-09-12,0.2,19.6,11.4
2011-09-13,0.6,17.5,9.4
2011-09-14,0.0,17.0,8.1
2011-09-15,0.0,17.9,10.8
2011-09-16,0.0,19.9,12.3
2011-09-17,1.0,16.3,6.8
2011-09-18,2.0,14.7,9.9
2011-09-19,1.4,17.8,12.3
2011-09-20,1.0,19.3,11.5
2011-09-21,1.2,15.8,10.8
2011-09-22,0.8,16.1,9.0
2011-09-23,0.6,18.0,8.2
2011-09-24,0.2,19.1,11.4
2011-09-25,0.4,20.6,14.9
2011-09-26,0.2,19.1,11.4
2011-09-27,0.2,21.7,12.2
2011-09-28,1.2,24.5,14.8
2011-09-29,0.0,27.6,13.8
2011-09-30,0.0,28.2,14.6
2011-10-01,0.0,27.9,14.8
2011-10-02,0.0,27.9,16.7
2011-10-03,0.0,26.2,13.6
2011-10-04,0.0,19.2,15.0
2011-10-05,0.2,19.2,10.3
2011-10-06,1.4,13.9,7.1
2011-10-07,0.0,14.9,8.5
2011-10-08,5.6,15.1,9.8
2011-10-09,0.0,17.8,14.4
2011-10-10,0.0,19.3,15.1
2011-10-11,0.0,19.0,13.9
2011-10-12,0.2,18.8,11.5
2011-10-13,0.0,14.3,9.5
2011-10-14,0.0,14.6,4.6
2011-10-15,0.0,16.2,6.2
2011-10-16,0.0,16.3,7.6
2011-10-17,3.0,15.3,6.2
2011-10-18,0.0,11.8,4.2
2011-10-19,0.0,10.2,1.4
2011-10-20,0.0,11.1,4.9
2011-10-21,0.0,14.0,5.3
2011-10-22,0.0,13.3,7.6
2011-10-23,0.0,18.7,10.1
2011-10-24,0.2,15.2,11.0
2011-10-25,0.4,15.8,5.4
2011-10-26,1.8,13.5,7.9
2011-10-27,1.8,11.8,7.2
2011-10-28,0.0,13.5,8.8
2011-10-29,0.0,14.8,11.8
2011-10-30,0.0,16.5,13.9
2011-10-31,0.0,16.3,11.0
2011-11-01,0.0,14.4,7.0
2011-11-02,0.2,15.3,9.6
2011-11-03,31.8,16.7,11.5
2011-11-04,1.4,14.9,7.9
2011-11-05,0.0,12.4,6.7
2011-11-06,0.0,10.6,7.1
2011-11-07,0.6,11.1,9.6
2011-11-08,3.6,9.8,8.9
2011-11-09,0.0,13.6,9.0
2011-11-10,0.2,12.8,9.1
2011-11-11,0.0,11.1,8.6
2011-11-12,0.0,14.0,10.5
2011-11-13,0.0,15.4,8.0
2011-11-14,0.0,9.6,7.9
2011-11-15,0.0,10.7,4.0
2011-11-16,0.0,9.7,4.0
2011-11-17,0.0,12.8,6.7
2011-11-18,0.2,13.3,6.3
2011-11-19,0.2,12.5,1.5
2011-11-20,0.2,11.3,0.5
2011-11-21,0.2,10.2,7.0
2011-11-22,0.2,11.1,2.8
2011-11-23,0.0,9.1,4.0
2011-11-24,1.0,12.6,7.8
2011-11-25,0.0,10.2,6.0
2011-11-26,0.0,12.7,8.1
2011-11-27,0.2,12.8,0.2
2011-11-28,0.0,12.3,0.7
2011-11-29,0.4,12.8,4.7
2011-11-30,0.4,10.8,5.4
2011-12-01,0.0,9.4,0.8
2011-12-02,1.8,10.1,1.2
2011-12-03,0.0,10.0,5.2
2011-12-04,1.2,7.5,1.0
2011-12-05,0.2,5.2,0.9
2011-12-06,1.8,6.9,1.3
2011-12-07,0.2,7.1,2.6
2011-12-08,5.0,11.9,1.9
2011-12-09,0.0,6.3,-0.9
2011-12-10,0.2,4.2,-0.6
2011-12-11,2.4,7.7,2.0
2011-12-12,4.0,11.1,2.3
2011-12-13,1.4,5.3,2.6
2011-12-14,0.8,4.8,1.1
2011-12-15,4.0,6.3,0.0
2011-12-16,2.8,2.9,-0.3
2011-12-17,0.4,4.1,-1.8
2011-12-18,0.6,3.1,-2.0
2011-12-19,2.6,6.3,1.0
2011-12-20,3.0,6.6,4.6
2011-12-21,0.4,10.9,7.0
2011-12-22,0.0,10.8,7.7
2011-12-23,8.0,10.8,1.9
2011-12-24,0.2,9.1,2.1
2011-12-25,0.0,11.4,9.0
2011-12-26,0.0,11.9,8.2
2011-12-27,0.0,9.9,6.8
2011-12-28,0.0,9.6,4.4
2011-12-29,0.6,8.3,4.1
2011-12-30,3.2,10.8,3.8
2011-12-31,0.0,12.0,10.3
2012-01-01,0.8,12.0,4.2
2012-01-02,1.4,11.4,3.9
2012-01-03,5.4,12.5,4.3
2012-01-04,3.0,10.8,5.0
2012-01-05,0.8,8.0,2.5
2012-01-06,0.0,9.0,2.0
2012-01-07,0.0,8.5,6.9
2012-01-08,0.0,8.5,6.2
2012-01-09,0.0,11.0,7.0
2012-01-10,0.0,9.9,6.5
2012-01-11,0.0,10.4,6.7
2012-01-12,1.8,10.4,1.0
2012-01-13,0.0,5.2,-2.0
2012-01-14,0.2,4.0,-1.8
2012-01-15,0.0,4.5,-2.4
2012-01-16,0.2,5.5,-2.0
2012-01-17,0.2,7.0,-1.6
2012-01-18,9.0,10.9,6.0
2012-01-19,0.6,8.0,2.7
2012-01-20,7.2,11.0,5.2
2012-01-21,1.2,10.6,3.9
2012-01-22,0.0,10.0,4.1
2012-01-23,0.2,7.5,0.7
2012-01-24,3.2,8.7,2.5
2012-01-25,1.6,9.0,5.0
2012-01-26,0.6,7.5,0.9
2012-01-27,2.2,7.3,1.5
2012-01-28,0.2,5.2,-0.7
2012-01-29,0.0,2.4,0.0
2012-01-30,0.0,2.7,-0.9
2012-01-31,0.0,1.4,-4.6
2012-02-01,0.2,1.9,-5.1
2012-02-02,0.0,0.3,-5.1
2012-02-03,0.2,1.1,-7.1
2012-02-04,0.0,-0.7,-5.5
2012-02-05,1.8,0.7,-1.0
2012-02-06,0.2,2.1,-0.4
2012-02-07,0.0,1.0,-7.0
2012-02-08,0.0,-0.6,-1.9
2012-02-09,0.0,-0.9,-2.9
2012-02-10,2.2,-0.4,-13.7
2012-02-11,0.0,-0.9,-13.3
2012-02-12,0.2,3.2,0.1
2012-02-13,0.4,5.5,1.0
2012-02-14,0.0,6.9,2.7
2012-02-15,0.0,9.5,4.8
2012-02-16,0.0,9.4,4.7
2012-02-17,0.0,11.0,7.3
2012-02-18,1.6,8.9,0.0
2012-02-19,0.0,4.7,-0.7
2012-02-20,0.0,6.9,1.0
2012-02-21,0.0,10.2,5.1
2012-02-22,1.4,10.7,7.6
2012-02-23,0.0,15.4,8.2
2012-02-24,0.0,13.7,1.7
2012-02-25,0.0,9.2,2.5
2012-02-26,1.0,11.1,3.5
2012-02-27,0.2,10.2,6.6
2012-02-28,0.2,11.2,8.0
2012-02-29,0.0,11.3,4.4
2012-03-01,0.0,12.0,-0.6
2012-03-02,0.2,8.7,0.7
2012-03-03,0.0,12.9,4.3
2012-03-04,15.8,7.6,1.0
2012-03-05,0.2,6.6,1.8
2012-03-06,0.4,7.3,2.2
2012-03-07,2.8,8.6,1.6
2012-03-08,0.0,9.9,3.8
2012-03-09,0.0,10.7,6.6
2012-03-10,0.0,14.0,4.7
2012-03-11,0.2,14.9,3.6
2012-03-12,0.2,6.7,4.4
2012-03-13,0.0,7.5,4.4
2012-03-14,0.2,9.1,-0.1
2012-03-15,0.0,15.9,2.3
2012-03-16,0.0,8.4,6.6
2012-03-17,2.8,9.9,3.0
2012-03-18,0.4,6.9,0.5
2012-03-19,0.0,11.5,3.8
2012-03-20,0.0,14.1,4.9
2012-03-21,0.2,13.7,-0.2
2012-03-22,0.0,16.2,2.7
2012-03-23,0.0,17.0,1.6
2012-03-24,0.2,16.9,0.2
2012-03-25,0.0,13.4,-0.7
2012-03-26,0.0,17.2,3.2
2012-03-27,0.0,17.0,6.6
2012-03-28,0.0,19.2,5.3
2012-03-29,0.0,16.6,4.3
2012-03-30,0.0,11.2,5.0
2012-03-31,0.0,8.7,0.0
2012-04-01,0.0,11.6,2.4
2012-04-02,0.0,11.9,5.9
2012-04-03,7.0,12.5,4.4
2012-04-04,4.6,7.8,4.5
2012-04-05,0.2,8.1,-2.1
2012-04-06,0.2,9.7,3.7
2012-04-07,0.2,7.8,3.5
2012-04-08,1.8,11.9,7.4
2012-04-09,4.2,10.7,4.7
2012-04-10,0.2,11.1,2.3
2012-04-11,0.2,11.3,2.4
2012-04-12,0.0,10.5,3.9
2012-04-13,0.0,10.2,0.5
2012-04-14,0.0,9.0,0.1
2012-04-15,0.8,6.8,-1.1
2012-04-16,1.4,9.1,3.1
2012-04-17,1.6,12.4,3.4
2012-04-18,3.4,10.1,5.8
2012-04-19,2.8,8.5,3.3
2012-04-20,1.2,10.9,1.6
2012-04-21,3.4,11.4,4.6
2012-04-22,3.0,12.0,5.1
2012-04-23,7.2,10.8,5.7
2012-04-24,1.8,9.7,4.7
2012-04-25,9.2,10.7,5.9
2012-04-26,3.0,12.9,8.1
2012-04-27,10.6,9.3,6.9
2012-04-28,20.8,7.5,4.5
2012-04-29,5.0,13.1,5.0
2012-04-30,7.0,16.1,9.5
2012-05-01,3.6,13.2,7.3
2012-05-02,16.2,12.6,6.3
2012-05-03,0.2,7.2,5.3
2012-05-04,0.6,8.3,2.4
2012-05-05,0.0,7.7,3.2
2012-05-06,0.0,8.3,1.2
2012-05-07,3.8,11.3,8.4
2012-05-08,2.2,16.4,8.8
2012-05-09,4.8,15.6,10.0
2012-05-10,0.8,18.5,9.3
2012-05-11,0.0,13.0,3.0
2012-05-12,0.0,12.8,3.8
2012-05-13,1.0,14.4,6.7
2012-05-14,1.0,12.3,3.9
2012-05-15,2.2,9.2,1.6
2012-05-16,0.0,11.9,6.4
2012-05-17,0.0,12.7,6.4
2012-05-18,1.2,15.0,9.5
2012-05-19,0.2,10.7,7.0
2012-05-20,0.0,9.5,7.7
2012-05-21,0.0,14.5,8.3
2012-05-22,0.0,21.5,9.8
2012-05-23,0.0,20.3,9.9
2012-05-24,0.0,22.4,9.7
2012-05-25,0.0,22.4,10.9
2012-05-26,0.0,23.0,8.6
2012-05-27,0.0,24.5,9.7
2012-05-28,0.0,25.4,11.6
2012-05-29,0.0,17.6,11.0
2012-05-30,2.2,22.4,11.7
2012-05-31,0.8,16.2,12.9
2012-06-01,2.0,17.6,9.4
2012-06-02,10.6,14.4,8.5
2012-06-03,15.6,9.9,6.3
2012-06-04,1.2,11.2,5.0
2012-06-05,1.4,14.4,10.4
2012-06-06,0.6,17.6,11.0
2012-06-07,8.4,17.0,11.8
2012-06-08,1.6,13.3,9.8
2012-06-09,0.0,15.4,7.1
2012-06-10,13.4,17.9,10.0
2012-06-11,8.6,10.7,9.3
2012-06-12,0.0,12.4,5.4
2012-06-13,0.0,15.9,6.2
2012-06-14,3.2,16.6,10.0
2012-06-15,0.4,18.0,9.4
2012-06-16,0.0,17.3,11.6
2012-06-17,13.0,17.9,10.6
2012-06-18,0.2,17.4,8.2
2012-06-19,0.0,19.6,10.4
2012-06-20,8.0,20.1,9.5
2012-06-21,1.6,19.4,10.1
2012-06-22,2.0,15.2,10.2
2012-06-23,10.4,16.3,10.2
2012-06-24,0.0,17.7,9.5
2012-06-25,0.0,18.7,11.1
2012-06-26,0.6,20.7,16.4
2012-06-27,0.2,21.7,15.2
2012-06-28,0.0,26.1,12.0
2012-06-29,0.0,19.8,14.4
2012-06-30,0.2,19.6,9.5
2012-07-01,0.2,16.1,11.2
2012-07-02,2.0,16.6,13.6
2012-07-03,2.2,18.9,15.3
2012-07-04,0.0,21.5,15.1
2012-07-05,8.0,22.9,13.7
2012-07-06,5.4,18.1,10.0
2012-07-07,7.8,18.5,12.5
2012-07-08,3.2,17.6,12.7
2012-07-09,0.0,18.5,12.3
2012-07-10,7.0,16.9,9.1
2012-07-11,5.8,16.4,7.8
2012-07-12,14.6,17.8,12.0
2012-07-13,19.2,17.6,12.2
2012-07-14,3.6,16.1,9.9
2012-07-15,0.2,17.6,10.7
2012-07-16,5.6,18.0,12.5
2012-07-17,0.0,21.5,15.1
2012-07-18,5.2,19.1,11.4
2012-07-19,11.6,15.7,10.3
2012-07-20,4.4,15.2,8.6
2012-07-21,0.0,19.4,11.2
2012-07-22,0.0,22.6,11.1
2012-07-23,0.0,26.0,13.1
2012-07-24,0.0,27.7,13.7
2012-07-25,0.0,27.5,12.5
2012-07-26,0.0,26.1,13.1
2012-07-27,0.0,23.0,11.9
2012-07-28,0.0,19.5,9.7
2012-07-29,7.0,18.7,8.0
2012-07-30,2.0,17.4,10.2
2012-07-31,0.0,19.4,11.5
2012-08-01,0.0,22.0,13.5
2012-08-02,5.8,21.0,11.2